Home   Weather   Waidhofen an der Thaya   Past weeks

Flag for Austria Past Weather in Waidhofen an der Thaya, Lower Austria, Austria — Yesterday and Last 2 Weeks

Now
36 °F

Chilly.


Feels Like: 36 °F
Forecast: 39 / 44 °F
Wind: 2 mph from West

Location: Retz

Current Time: Feb 20, 2017 at 9:59:17 am

Latest Report: Feb 20, 2017 at 9:00 am


Visibility: N/A

Pressure: 30.21 "Hg (28.37 "Hg at 506m altitude)

Humidity: 84%

Dew Point: 32 °F

Location of Waidhofen an der ThayaLocation

Past Weather in Waidhofen an der Thaya — Graph

°F

Waidhofen an der Thaya Temperature Yesterday

Maximum temperature yesterday: 42 °F (at 4:00 pm)
Minimum temperature yesterday: 31 °F (at 6:00 am)
Average temperature yesterday: 36 °F

High & Low Weather Summary for the Past Weeks

 TemperatureHumidityPressure
High51 °F (Feb 15, 3:00 pm)100% (Feb 6, 8:00 am)30.65 "Hg (Feb 6, 8:00 am)
Low23 °F (Feb 9, 8:00 am)40% (Feb 15, 4:00 pm)29.70 "Hg (Feb 5, 1:00 pm)
Average33 °F82%30.32 "Hg
* Reported Feb 5 8:00 am — Feb 20 8:00 am, Waidhofen an der Thaya, Weather by CustomWeather, © 2017

Note: Actual official high and low records may vary slightly from our data, if they occured in-between our weather recording intervals... More about our weather records

Advertising

Waidhofen an der Thaya Weather History for the Previous 24 Hours

Scroll right to see more
 ConditionsComfort  
Time TempWeatherWind HumidityBarometerVisibility
8:00 am
Mon, Feb 20
36 °FChilly.2 mph83%30.21 "HgN/A
7:00 am35 °FOvercast.1 mph82%30.20 "Hg5 mi
6:00 am36 °FChilly.3 mph79%30.19 "HgN/A
5:00 am34 °FChilly.2 mph83%30.19 "HgN/A
4:00 am36 °FChilly.2 mph77%30.19 "HgN/A
3:00 am36 °FChilly.5 mph77%30.20 "HgN/A
2:00 am36 °FChilly.5 mph79%30.21 "HgN/A
1:00 am36 °FChilly.7 mph79%30.20 "HgN/A
12:00 am36 °FChilly.8 mph79%30.19 "HgN/A
11:00 pm
Sun, Feb 19
37 °FChilly.5 mph76%30.19 "HgN/A
10:00 pm36 °FChilly.6 mph81%30.18 "HgN/A
9:00 pm36 °FChilly.2 mph92%30.19 "HgN/A
8:00 pm36 °FChilly.1 mph90%30.19 "HgN/A
7:00 pm37 °FClear.1 mph90%30.19 "Hg3 mi
6:00 pm37 °FChilly.2 mph90%30.19 "HgN/A
5:00 pm40 °FQuite cool.1 mph81%30.19 "HgN/A
4:00 pm42 °FQuite cool.No wind78%30.21 "HgN/A
3:00 pm41 °FQuite cool.1 mph80%30.23 "HgN/A
2:00 pm38 °FChilly.1 mph88%30.26 "HgN/A
1:00 pm37 °FOvercast.1 mph88%30.28 "Hg8 mi
12:00 pm36 °FChilly.1 mph91%30.30 "HgN/A
11:00 am34 °FChilly.1 mph94%30.32 "HgN/A
10:00 am34 °FChilly.1 mph92%30.32 "HgN/A
9:00 am32 °FChilly.1 mph96%30.33 "HgN/A
Weather by CustomWeather, © 2017

See weather overviewHow to use our weather pages